Flag for Germany Weather past 2 weeks in Rheda-Wiedenbrück, North Rhine-Westphalia, Germany

Now
63 °F

Sunny.


Feels Like: 63 °F
Forecast: 51 / 74 °F
Wind: 1 mph from North

Location: Paderborn / Lippstadt

Current Time: Aug 27, 2014 at 8:57:59 PM

Latest Report: Aug 27, 2014 at 7:50 PM


Visibility: 10 mi

Pressure: 30.04 "Hg

Humidity: 56%

Dew point: 46 °F

Location of Rheda-WiedenbrückLocation

Historic Weather in Rheda-Wiedenbrück — Graph

°F

Rheda-Wiedenbrück temperature yesterday

Maximum temperature yesterday: 59 °F (at 3:20 PM)
Minimum temperature yesterday: 52 °F (at 6:50 AM)
Average temperature yesterday: 55 °F

Past Weeks' High & Low Weather Summary

 TemperatureHumidityPressure
High68 °F (Aug 13, 12:20 PM)100% (Aug 12, 8:50 PM)30.09 "Hg (Aug 12, 8:50 PM)
Low45 °F (Aug 24, 4:20 AM)43% (Aug 27, 4:20 PM)29.65 "Hg (Aug 13, 3:20 PM)
Average56 °F75%29.89 "Hg
* Reported Aug 12 7:20 PM — Aug 27 7:50 PM, Rheda-Wiedenbrück, Weather by CustomWeather, © 2014

Note: Actual official high and low records may vary slightly from our data, if they occured in-between our weather recording intervals... More about our weather records

Advertising

Rheda-Wiedenbrück weather history for previous 24 hours

 ConditionsComfort  
Time TempWeatherWind HumidityBarometerVisibility
7:50 PM
Aug 27
63 °FSunny.1 mph56%30.04 "Hg10 mi
7:20 PM66 °FSunny.2 mph46%30.04 "Hg10 mi
6:20 PM66 °FPassing clouds.3 mph43%30.04 "HgN/A
4:20 PM66 °FPassing clouds.3 mph43%30.04 "HgN/A
3:50 PM64 °FPassing clouds.6 mph46%30.04 "HgN/A
3:20 PM64 °FPassing clouds.5 mph46%30.04 "HgN/A
2:50 PM66 °FPassing clouds.3 mph46%30.04 "HgN/A
2:20 PM64 °FPassing clouds.5 mph46%30.04 "HgN/A
1:50 PM64 °FPassing clouds.5 mph49%30.04 "HgN/A
1:20 PM64 °FSunny.5 mph56%30.04 "Hg10 mi
12:20 PM63 °FPassing clouds.3 mph49%30.04 "HgN/A
11:50 AM61 °FPassing clouds.5 mph52%30.04 "HgN/A
11:20 AM59 °FSunny.3 mph68%30.04 "Hg10 mi
10:50 AM59 °FSunny.2 mph59%30.01 "Hg10 mi
10:20 AM59 °FSunny.1 mph63%30.01 "Hg10 mi
9:50 AM57 °FSunny.1 mph72%30.01 "Hg10 mi
9:20 AM54 °FSunny.2 mph100%30.01 "Hg10 mi
8:50 AM52 °FSunny.3 mph100%29.98 "Hg10 mi
8:20 AM48 °FClear.2 mph100%29.98 "Hg5 mi
7:50 AM46 °FFog.2 mph100%29.98 "Hg3 mi
7:20 AM46 °FLight fog.1 mph93%29.95 "Hg4 mi
6:50 AM45 °FLight fog.1 mph100%29.95 "Hg4 mi
6:20 AM45 °FLight fog.5 mph93%29.92 "Hg2 mi
5:50 AM45 °FLight fog.2 mph93%29.92 "Hg2 mi
5:20 AM45 °FLight fog.2 mph100%29.92 "Hg4 mi
4:50 AM45 °FLight fog.2 mph100%29.92 "Hg4 mi
4:20 AM46 °FLight fog.1 mph100%29.89 "Hg4 mi
3:50 AM46 °FClear.3 mph100%29.89 "Hg10 mi
11:50 PM
Aug 26
52 °FClear.1 mph100%29.83 "Hg10 mi
11:20 PM52 °FClear.2 mph100%29.83 "Hg10 mi
10:50 PM54 °FClear.2 mph94%29.83 "Hg10 mi
10:20 PM54 °FClear.2 mph94%29.83 "Hg10 mi
9:50 PM54 °FClear.5 mph94%29.80 "Hg10 mi
9:20 PM54 °FScattered clouds.5 mph94%29.80 "HgN/A
8:50 PM55 °FScattered clouds.5 mph94%29.77 "HgN/A
8:20 PM55 °FScattered clouds.3 mph88%29.77 "HgN/A
Weather by CustomWeather, © 2014

See weather overviewHow to use our weather pages